| time (UTC) | temp F | wind direction | speed MPH | gust MPH | rain 1hr in | rain 24hr in | rain mn in | humidity % | barometer mb |
| 20260831092520 | 65 | 0.0 | 0.0 | 0.00 | 0.00 | 0.00 | 100 | 1018.2 | |
| 20260831091520 | 65 | 0.0 | 0.0 | 0.00 | 0.00 | 0.00 | 100 | 1018.1 | |
| 20260831090520 | 65 | 0.0 | 0.0 | 0.00 | 0.00 | 0.00 | 100 | 1018.0 | |
| 20260831085944 | 65 | 0.0 | 0.0 | 0.00 | 0.00 | 0.00 | 100 | 1018.0 | |
| 20260831084520 | 65 | 0.0 | 0.0 | 0.00 | 0.00 | 0.00 | 100 | 1018.0 | |
| 20260831083520 | 65 | 0.0 | 0.0 | 0.00 | 0.00 | 0.00 | 100 | 1017.8 | |
| 20260831082520 | 65 | 0.0 | 0.0 | 0.00 | 0.00 | 0.00 | 100 | 1017.8 | |
| 20260831081520 | 66 | 0.0 | 0.0 | 0.00 | 0.00 | 0.00 | 100 | 1017.8 | |
| 20260831080520 | 66 | 0.0 | 0.0 | 0.00 | 0.00 | 0.00 | 100 | 1017.7 | |
| 20260831075520 | 66 | 0.0 | 0.0 | 0.00 | 0.00 | 0.00 | 100 | 1017.7 | |
| 20260831074520 | 66 | 0.0 | 0.0 | 0.00 | 0.00 | 0.00 | 100 | 1017.7 | |
| 20260831073733 | 66 | 0.0 | 0.0 | 0.00 | 0.00 | 0.00 | 100 | 1017.8 | |
| 20260831072520 | 66 | 0.0 | 0.0 | 0.00 | 0.00 | 0.00 | 100 | 1017.8 | |
| 20260831071520 | 66 | 0.0 | 0.0 | 0.00 | 0.00 | 0.00 | 100 | 1017.9 | |
| 20260831070731 | 67 | 0.0 | 0.0 | 0.00 | 0.00 | 0.00 | 100 | 1017.9 | |
| 20260831065520 | 67 | 0.0 | 0.0 | 0.00 | 0.00 | 0.00 | 100 | 1018.1 | |
| 20260831064520 | 67 | 0.0 | 0.0 | 0.00 | 0.00 | 0.00 | 100 | 1018.0 | |
| 20260831063520 | 67 | 0.0 | 0.0 | 0.00 | 0.00 | 0.00 | 100 | 1018.0 | |
| 20260831062520 | 68 | 0.0 | 0.0 | 0.00 | 0.00 | 0.00 | 100 | 1018.0 | |
| 20260831061520 | 68 | 0.0 | 0.0 | 0.00 | 0.00 | 0.00 | 100 | 1018.1 | |
| 20260831060520 | 68 | 0.0 | 1.0 | 0.00 | 0.00 | 0.00 | 100 | 1018.3 | |
| 20260831055520 | 68 | 0.0 | 0.0 | 0.00 | 0.00 | 0.00 | 100 | 1018.3 | |
| 20260831054734 | 68 | 0.0 | 1.0 | 0.00 | 0.00 | 0.00 | 100 | 1018.5 | |
| 20260831053520 | 68 | 0.0 | 0.0 | 0.00 | 0.00 | 0.00 | 100 | 1018.4 | |
| 20260831052520 | 68 | 0.0 | 0.0 | 0.00 | 0.00 | 0.00 | 100 | 1018.5 | |
| 20260831051519 | 68 | 0.0 | 0.0 | 0.00 | 0.00 | 0.00 | 100 | 1018.4 | |
| 20260831050520 | 68 | 293 | 1.0 | 3.0 | 0.00 | 0.00 | 0.00 | 100 | 1018.7 |
| 20260831045733 | 68 | 0.0 | 4.0 | 0.00 | 0.00 | 0.00 | 100 | 1018.6 | |
| 20260831044520 | 68 | 0.0 | 2.0 | 0.00 | 0.00 | 0.00 | 100 | 1018.7 | |
| 20260831043520 | 68 | 293 | 2.0 | 3.0 | 0.00 | 0.00 | 0.00 | 100 | 1018.5 |
| 20260831042520 | 68 | 0.0 | 1.0 | 0.00 | 0.00 | 0.00 | 100 | 1018.3 | |
| 20260831041520 | 68 | 0.0 | 0.0 | 0.00 | 0.00 | 0.00 | 100 | 1018.5 | |
| 20260831040520 | 68 | 0.0 | 0.0 | 0.00 | 0.00 | 0.00 | 100 | 1018.4 | |
| 20260831035519 | 68 | 0.0 | 0.0 | 0.00 | 0.00 | 0.00 | 100 | 1018.5 | |
| 20260831034730 | 68 | 0.0 | 0.0 | 0.00 | 0.00 | 0.00 | 100 | 1018.5 | |
| 20260831033519 | 68 | 0.0 | 0.0 | 0.00 | 0.00 | 0.00 | 100 | 1018.7 | |
| 20260831032519 | 68 | 0.0 | 2.0 | 0.00 | 0.00 | 0.00 | 100 | 1018.8 | |
| 20260831031519 | 68 | 0.0 | 0.0 | 0.00 | 0.00 | 0.00 | 100 | 1018.8 | |
| 20260831030519 | 68 | 0.0 | 0.0 | 0.00 | 0.00 | 0.00 | 100 | 1018.8 | |
| 20260831025520 | 68 | 0.0 | 0.0 | 0.00 | 0.00 | 0.00 | 100 | 1018.9 | |
| 20260831024730 | 68 | 0.0 | 0.0 | 0.00 | 0.00 | 0.00 | 100 | 1018.8 | |
| 20260831023519 | 69 | 0.0 | 0.0 | 0.00 | 0.00 | 0.00 | 100 | 1018.8 | |
| 20260831022519 | 69 | 0.0 | 0.0 | 0.00 | 0.00 | 0.00 | 100 | 1018.9 | |
| 20260831021520 | 69 | 0.0 | 0.0 | 0.00 | 0.00 | 0.00 | 100 | 1018.8 | |
| 20260831020729 | 69 | 0.0 | 0.0 | 0.00 | 0.00 | 0.00 | 100 | 1018.9 | |
| 20260831015730 | 70 | 0.0 | 0.0 | 0.00 | 0.00 | 0.00 | 100 | 1018.8 | |
| 20260831014520 | 70 | 0.0 | 0.0 | 0.00 | 0.00 | 0.00 | 100 | 1018.7 | |
| 20260831013520 | 71 | 0.0 | 0.0 | 0.00 | 0.00 | 0.00 | 100 | 1018.7 | |
| 20260831012733 | 72 | 0.0 | 0.0 | 0.00 | 0.00 | 0.00 | 100 | 1018.5 | |
| 20260831011520 | 72 | 0.0 | 0.0 | 0.00 | 0.00 | 0.00 | 100 | 1018.3 | |
| 20260831010520 | 73 | 0.0 | 0.0 | 0.00 | 0.00 | 0.00 | 100 | 1018.3 | |
| 20260831005520 | 73 | 0.0 | 0.0 | 0.00 | 0.00 | 0.00 | 100 | 1018.1 | |
| 20260831004519 | 73 | 0.0 | 0.0 | 0.00 | 0.00 | 0.00 | 100 | 1017.9 | |
| 20260831003520 | 74 | 0.0 | 0.0 | 0.00 | 0.00 | 0.00 | 100 | 1017.6 | |
| 20260831002520 | 74 | 0.0 | 0.0 | 0.00 | 0.00 | 0.00 | 100 | 1017.3 | |
| 20260831001519 | 75 | 0.0 | 0.0 | 0.00 | 0.00 | 0.00 | 100 | 1017.0 | |
| 20260831000520 | 75 | 0.0 | 0.0 | 0.00 | 0.00 | 0.00 | 100 | 1016.9 | |
| 20260830235519 | 75 | 0.0 | 0.0 | 0.00 | 0.00 | 0.00 | 100 | 1016.8 | |
| 20260830234520 | 76 | 0.0 | 0.0 | 0.00 | 0.00 | 0.00 | 100 | 1016.9 | |
| 20260830233733 | 76 | 0.0 | 0.0 | 0.00 | 0.00 | 0.00 | 100 | 1017.0 | |
| 20260830232520 | 77 | 0.0 | 0.0 | 0.00 | 0.00 | 0.00 | 1 | 1017.0 | |
| 20260830231520 | 77 | 0.0 | 0.0 | 0.00 | 0.00 | 0.00 | 1 | 1017.1 | |
| 20260830230520 | 77 | 0.0 | 0.0 | 0.00 | 0.00 | 0.00 | 11 | 1017.0 | |
| 20260830225519 | 77 | 0.0 | 0.0 | 0.00 | 0.00 | 0.00 | 26 | 1017.0 | |
| 20260830224946 | 78 | 0.0 | 0.0 | 0.00 | 0.00 | 0.00 | 33 | 1017.0 | |
| 20260830223520 | 78 | 0.0 | 0.0 | 0.00 | 0.00 | 0.00 | 34 | 1017.1 | |
| 20260830222519 | 78 | 0.0 | 0.0 | 0.00 | 0.00 | 0.00 | 36 | 1017.1 | |
| 20260830221731 | 79 | 0.0 | 0.0 | 0.00 | 0.00 | 0.00 | 41 | 1017.1 | |
| 20260830220945 | 80 | 0.0 | 0.0 | 0.00 | 0.00 | 0.00 | 46 | 1017.1 | |
| 20260830215520 | 81 | 0.0 | 0.0 | 0.00 | 0.00 | 0.00 | 49 | 1017.0 | |
| 20260830214734 | 81 | 0.0 | 0.0 | 0.00 | 0.00 | 0.00 | 53 | 1016.9 | |
| 20260830213942 | 81 | 0.0 | 1.0 | 0.00 | 0.00 | 0.00 | 58 | 1016.9 | |
| 20260830212520 | 81 | 293 | 1.0 | 3.0 | 0.00 | 0.00 | 0.00 | 61 | 1016.9 |
| 20260830211520 | 82 | 293 | 1.0 | 4.0 | 0.00 | 0.00 | 0.00 | 61 | 1016.8 |
| 20260830210520 | 82 | 0.0 | 1.0 | 0.00 | 0.00 | 0.00 | 60 | 1017.0 | |
| 20260830205520 | 83 | 0.0 | 1.0 | 0.00 | 0.00 | 0.00 | 60 | 1016.9 | |
| 20260830204942 | 83 | 0.0 | 0.0 | 0.00 | 0.00 | 0.00 | 60 | 1016.8 | |
| 20260830203520 | 84 | 293 | 2.0 | 3.0 | 0.00 | 0.00 | 0.00 | 56 | 1016.9 |
| 20260830202520 | 85 | 293 | 2.0 | 5.0 | 0.00 | 0.00 | 0.00 | 55 | 1016.9 |
| 20260830201732 | 86 | 270 | 2.0 | 5.0 | 0.00 | 0.00 | 0.00 | 54 | 1016.9 |
| 20260830200946 | 86 | 270 | 3.0 | 8.0 | 0.00 | 0.00 | 0.00 | 53 | 1016.8 |
| 20260830195520 | 86 | 270 | 2.0 | 6.0 | 0.00 | 0.00 | 0.00 | 57 | 1017.0 |
| 20260830194520 | 85 | 293 | 2.0 | 5.0 | 0.00 | 0.00 | 0.00 | 56 | 1017.1 |
| 20260830193520 | 86 | 293 | 5.0 | 10.0 | 0.00 | 0.00 | 0.00 | 55 | 1017.4 |
| 20260830192732 | 85 | 248 | 4.0 | 10.0 | 0.00 | 0.00 | 0.00 | 59 | 1017.6 |
| 20260830191733 | 84 | 248 | 3.0 | 6.0 | 0.00 | 0.00 | 0.00 | 60 | 1017.6 |
| 20260830190947 | 84 | 248 | 2.0 | 6.0 | 0.00 | 0.00 | 0.00 | 59 | 1017.9 |
| 20260830185520 | 84 | 270 | 3.0 | 5.0 | 0.00 | 0.00 | 0.00 | 59 | 1018.0 |
| 20260830184943 | 83 | 248 | 3.0 | 7.0 | 0.00 | 0.00 | 0.00 | 59 | 1018.1 |
| 20260830183520 | 84 | 225 | 2.0 | 6.0 | 0.00 | 0.00 | 0.00 | 59 | 1018.1 |
| 20260830182521 | 84 | 225 | 3.0 | 8.0 | 0.00 | 0.00 | 0.00 | 59 | 1018.3 |
| 20260830181520 | 84 | 270 | 2.0 | 6.0 | 0.00 | 0.00 | 0.00 | 57 | 1018.4 |
| 20260830180520 | 83 | 270 | 3.0 | 7.0 | 0.00 | 0.00 | 0.00 | 56 | 1018.4 |
| 20260830175730 | 83 | 180 | 2.0 | 7.0 | 0.00 | 0.00 | 0.00 | 50 | 1018.4 |
| 20260830174731 | 82 | 158 | 2.0 | 5.0 | 0.00 | 0.00 | 0.00 | 52 | 1018.7 |
| 20260830173520 | 82 | 180 | 4.0 | 7.0 | 0.00 | 0.00 | 0.00 | 47 | 1018.9 |
| 20260830172519 | 81 | 180 | 3.0 | 7.0 | 0.00 | 0.00 | 0.00 | 48 | 1019.0 |
| 20260830171520 | 81 | 180 | 3.0 | 6.0 | 0.00 | 0.00 | 0.00 | 40 | 1019.1 |
| 20260830170520 | 80 | 180 | 3.0 | 7.0 | 0.00 | 0.00 | 0.00 | 44 | 1019.1 |
| 20260830165518 | 80 | 180 | 1.0 | 3.0 | 0.00 | 0.00 | 0.00 | 44 | 1019.2 |
| 20260830164520 | 80 | 203 | 4.0 | 9.0 | 0.00 | 0.00 | 0.00 | 44 | 1019.2 |
| 20260830163732 | 79 | 203 | 4.0 | 7.0 | 0.00 | 0.00 | 0.00 | 39 | 1019.3 |
| 20260830162520 | 79 | 225 | 4.0 | 7.0 | 0.00 | 0.00 | 0.00 | 35 | 1019.4 |
| 20260830161520 | 79 | 248 | 4.0 | 8.0 | 0.00 | 0.00 | 0.00 | 33 | 1019.5 |
| 20260830160520 | 78 | 180 | 5.0 | 9.0 | 0.00 | 0.00 | 0.00 | 33 | 1019.4 |
| 20260830155520 | 78 | 248 | 4.0 | 10.0 | 0.00 | 0.00 | 0.00 | 28 | 1019.5 |
| 20260830154945 | 78 | 225 | 5.0 | 10.0 | 0.00 | 0.00 | 0.00 | 26 | 1019.6 |
| 20260830153520 | 77 | 225 | 4.0 | 8.0 | 0.00 | 0.00 | 0.00 | 9 | 1019.7 |
| 20260830152521 | 77 | 203 | 2.0 | 6.0 | 0.00 | 0.00 | 0.00 | 11 | 1020.0 |
| 20260830151520 | 76 | 203 | 2.0 | 6.0 | 0.00 | 0.00 | 0.00 | 6 | 1019.9 |
| 20260830150520 | 76 | 203 | 3.0 | 6.0 | 0.00 | 0.00 | 0.00 | 11 | 1020.0 |
| 20260830145520 | 76 | 203 | 3.0 | 7.0 | 0.00 | 0.00 | 0.00 | 5 | 1020.1 |
| 20260830144520 | 76 | 203 | 2.0 | 5.0 | 0.00 | 0.00 | 0.00 | 14 | 1020.0 |
| 20260830143520 | 75 | 203 | 2.0 | 7.0 | 0.00 | 0.00 | 0.00 | 17 | 1020.0 |
| 20260830142520 | 74 | 180 | 2.0 | 5.0 | 0.00 | 0.00 | 0.00 | 10 | 1020.1 |
| 20260830141518 | 74 | 180 | 2.0 | 5.0 | 0.00 | 0.00 | 0.00 | 100 | 1020.1 |
| 20260830140520 | 73 | 180 | 3.0 | 6.0 | 0.00 | 0.00 | 0.00 | 11 | 1020.2 |
| 20260830135520 | 73 | 180 | 2.0 | 5.0 | 0.00 | 0.00 | 0.00 | 100 | 1020.2 |
| 20260830134518 | 72 | 180 | 2.0 | 4.0 | 0.00 | 0.00 | 0.00 | 100 | 1020.1 |
| 20260830133520 | 71 | 180 | 1.0 | 5.0 | 0.00 | 0.00 | 0.00 | 100 | 1020.2 |
| 20260830132520 | 71 | 180 | 2.0 | 4.0 | 0.00 | 0.00 | 0.00 | 100 | 1020.2 |
| 20260830131520 | 70 | 180 | 3.0 | 5.0 | 0.00 | 0.00 | 0.00 | 100 | 1020.5 |
| 20260830130945 | 69 | 180 | 3.0 | 8.0 | 0.00 | 0.00 | 0.00 | 100 | 1020.4 |
| 20260830125520 | 69 | 180 | 2.0 | 4.0 | 0.00 | 0.00 | 0.00 | 100 | 1020.5 |
| 20260830124520 | 68 | 180 | 2.0 | 4.0 | 0.00 | 0.00 | 0.00 | 100 | 1020.5 |
| 20260830123519 | 64 | 180 | 1.0 | 4.0 | 0.00 | 0.00 | 0.00 | 100 | 1020.5 |
| 20260830122520 | 62 | 0.0 | 4.0 | 0.00 | 0.00 | 0.00 | 100 | 1020.6 | |
| 20260830121520 | 61 | 0.0 | 0.0 | 0.00 | 0.00 | 0.00 | 100 | 1020.5 | |
| 20260830120733 | 60 | 0.0 | 0.0 | 0.00 | 0.00 | 0.00 | 100 | 1020.4 | |
| 20260830115518 | 59 | 0.0 | 0.0 | 0.00 | 0.00 | 0.00 | 100 | 1020.5 | |
| 20260830114518 | 59 | 0.0 | 0.0 | 0.00 | 0.00 | 0.00 | 100 | 1020.5 | |
| 20260830113521 | 58 | 0.0 | 0.0 | 0.00 | 0.00 | 0.00 | 100 | 1020.6 | |
| 20260830112521 | 57 | 0.0 | 0.0 | 0.00 | 0.00 | 0.00 | 100 | 1020.6 | |
| 20260830111520 | 57 | 0.0 | 2.0 | 0.00 | 0.00 | 0.00 | 100 | 1020.7 | |
| 20260830110729 | 57 | 0.0 | 2.0 | 0.00 | 0.00 | 0.00 | 100 | 1020.7 | |
| 20260830105520 | 57 | 0.0 | 0.0 | 0.00 | 0.00 | 0.00 | 100 | 1020.7 | |
| 20260830104520 | 57 | 0.0 | 0.0 | 0.00 | 0.00 | 0.00 | 100 | 1020.8 | |
| 20260830103519 | 58 | 0.0 | 0.0 | 0.00 | 0.00 | 0.00 | 100 | 1020.7 | |
| 20260830102520 | 57 | 0.0 | 1.0 | 0.00 | 0.00 | 0.00 | 100 | 1020.5 | |
| 20260830101521 | 57 | 0.0 | 0.0 | 0.00 | 0.00 | 0.00 | 100 | 1020.7 | |
| 20260830100734 | 57 | 0.0 | 0.0 | 0.00 | 0.00 | 0.00 | 100 | 1020.7 | |
| 20260830095518 | 57 | 0.0 | 0.0 | 0.00 | 0.00 | 0.00 | 100 | 1020.8 | |
| 20260830094520 | 56 | 0.0 | 0.0 | 0.00 | 0.00 | 0.00 | 100 | 1020.8 | |
| 20260830093732 | 56 | 0.0 | 0.0 | 0.00 | 0.00 | 0.00 | 100 | 1020.8 |